Hourly Weather Holovenka

Today, 12 April, Monday

Time Temperature Precipitation Wind Pressure Humidity
00:00 +6°C° 0 mm 2 mps 749 mmHg 64%
01:00 +6°C° 0 mm 2 mps 749 mmHg 65%
02:00 +6°C° 0 mm 2 mps 749 mmHg 65%
03:00 +5°C° 0 mm 2 mps 749 mmHg 65%
04:00 +5°C° 0 mm 2 mps 748 mmHg 65%
05:00 +5°C° 0 mm 2 mps 748 mmHg 66%
06:00 +6°C° 0 mm 2 mps 748 mmHg 61%
07:00 +8°C° 0 mm 2 mps 748 mmHg 57%
08:00 +9°C° 0 mm 2 mps 748 mmHg 53%
09:00 +12°C° 0 mm 2 mps 747 mmHg 49%
10:00 +13°C° 0 mm 2 mps 747 mmHg 45%
11:00 +14°C° 0 mm 2 mps 747 mmHg 41%
12:00 +15°C° 0 mm 2 mps 746 mmHg 39%
13:00 +16°C° 0 mm 2 mps 746 mmHg 38%
14:00 +16°C° 0 mm 2 mps 746 mmHg 37%
15:00 +16°C° 0 mm 2 mps 745 mmHg 39%
16:00 +16°C° 0 mm 2 mps 745 mmHg 41%
17:00 +16°C° 0 mm 2 mps 745 mmHg 43%
18:00 +14°C° 0 mm 2 mps 745 mmHg 53%
19:00 +11°C° 0 mm 3 mps 746 mmHg 62%
20:00 +9°C° 0 mm 3 mps 746 mmHg 72%
21:00 +9°C° 0 mm 3 mps 746 mmHg 76%
22:00 +8°C° 0 mm 2 mps 745 mmHg 80%
23:00 +7°C° 0 mm 2 mps 745 mmHg 85%

Tomorrow, 13 April, Tuesday

Time Temperature Precipitation Wind Pressure Humidity
00:00 +8°C° 0 mm 1 mps 745 mmHg 84%
01:00 +8°C° 0 mm 1 mps 745 mmHg 84%
02:00 +7°C° 0 mm 0 mps 745 mmHg 83%
03:00 +6°C° 0 mm 0 mps 745 mmHg 83%
04:00 +6°C° 0 mm 0 mps 745 mmHg 83%
05:00 +6°C° 0 mm 0 mps 745 mmHg 83%
06:00 +8°C° 0 mm 1 mps 745 mmHg 79%
07:00 +9°C° 0 mm 1 mps 745 mmHg 75%
08:00 +10°C° 0 mm 1 mps 745 mmHg 71%
09:00 +11°C° 0 mm 1 mps 745 mmHg 68%
10:00 +12°C° 0 mm 1 mps 744 mmHg 65%
11:00 +13°C° 0 mm 2 mps 744 mmHg 62%
12:00 +12°C° 0 mm 2 mps 744 mmHg 66%
13:00 +12°C° 0 mm 2 mps 744 mmHg 70%
14:00 +12°C° 0 mm 2 mps 744 mmHg 74%
15:00 +10°C° 0.1 mm 2 mps 743 mmHg 79%
16:00 +10°C° 0.1 mm 2 mps 743 mmHg 84%
17:00 +9°C° 0.1 mm 2 mps 743 mmHg 89%
18:00 +9°C° 0.1 mm 2 mps 743 mmHg 91%
19:00 +9°C° 0.1 mm 2 mps 743 mmHg 92%
20:00 +8°C° 0.1 mm 2 mps 743 mmHg 94%
21:00 +8°C° 0 mm 2 mps 743 mmHg 94%
22:00 +8°C° 0 mm 2 mps 742 mmHg 95%
23:00 +8°C° 0 mm 2 mps 742 mmHg 95%

Day after tomorrow, 14 April, Wednesday

Time Temperature Precipitation Wind Pressure Humidity
00:00 +8°C° 0.2 mm 2 mps 742 mmHg 95%
01:00 +8°C° 0.2 mm 3 mps 741 mmHg 95%
02:00 +8°C° 0.2 mm 3 mps 741 mmHg 95%
03:00 +8°C° 0.1 mm 3 mps 741 mmHg 96%
04:00 +8°C° 0.1 mm 3 mps 741 mmHg 96%
05:00 +7°C° 0.1 mm 3 mps 740 mmHg 96%
06:00 +8°C° 0.4 mm 3 mps 740 mmHg 96%
07:00 +8°C° 0.4 mm 3 mps 740 mmHg 95%
08:00 +8°C° 0.4 mm 3 mps 740 mmHg 95%
09:00 +7°C° 0.4 mm 4 mps 741 mmHg 93%
10:00 +7°C° 0.4 mm 4 mps 741 mmHg 91%
11:00 +7°C° 0.4 mm 4 mps 741 mmHg 89%
12:00 +7°C° 0.2 mm 4 mps 741 mmHg 87%
13:00 +8°C° 0.2 mm 3 mps 741 mmHg 86%
14:00 +9°C° 0.2 mm 2 mps 741 mmHg 84%
15:00 +9°C° 0.1 mm 2 mps 741 mmHg 83%
16:00 +10°C° 0.1 mm 2 mps 740 mmHg 81%
17:00 +10°C° 0.1 mm 2 mps 740 mmHg 80%
18:00 +9°C° 0 mm 2 mps 740 mmHg 81%
19:00 +9°C° 0 mm 2 mps 740 mmHg 83%
20:00 +9°C° 0 mm 3 mps 741 mmHg 85%
21:00 +8°C° 0.1 mm 2 mps 741 mmHg 86%
22:00 +8°C° 0.1 mm 2 mps 740 mmHg 87%
23:00 +8°C° 0.1 mm 2 mps 740 mmHg 89%

15 April, Thursday

Time Temperature Precipitation Wind Pressure Humidity
00:00 +8°C° 0 mm 2 mps 740 mmHg 89%
01:00 +8°C° 0 mm 2 mps 740 mmHg 89%
02:00 +9°C° 0 mm 1 mps 740 mmHg 89%
03:00 +7°C° 0 mm 2 mps 740 mmHg 90%
04:00 +7°C° 0 mm 2 mps 740 mmHg 91%
05:00 +7°C° 0 mm 2 mps 740 mmHg 92%
06:00 +8°C° 0 mm 2 mps 740 mmHg 88%
07:00 +8°C° 0 mm 2 mps 740 mmHg 85%
08:00 +9°C° 0 mm 2 mps 740 mmHg 81%
09:00 +10°C° 0.2 mm 2 mps 740 mmHg 77%
10:00 +12°C° 0.2 mm 2 mps 740 mmHg 73%
11:00 +13°C° 0.2 mm 2 mps 740 mmHg 68%
12:00 +13°C° 0.5 mm 2 mps 740 mmHg 67%
13:00 +13°C° 0.5 mm 2 mps 740 mmHg 67%
14:00 +13°C° 0.5 mm 1 mps 739 mmHg 66%
15:00 +13°C° 0.4 mm 1 mps 739 mmHg 70%
16:00 +12°C° 0.4 mm 2 mps 739 mmHg 74%
17:00 +12°C° 0.4 mm 2 mps 739 mmHg 78%
18:00 +10°C° 0.3 mm 2 mps 739 mmHg 83%
19:00 +10°C° 0.3 mm 2 mps 739 mmHg 87%
20:00 +9°C° 0.3 mm 2 mps 739 mmHg 91%
21:00 +9°C° 0.1 mm 2 mps 739 mmHg 92%
22:00 +10°C° 0.1 mm 1 mps 739 mmHg 92%
23:00 +9°C° 0.1 mm 1 mps 739 mmHg 92%

16 April, Friday

Time Temperature Precipitation Wind Pressure Humidity
00:00 +9°C° 0.1 mm 1 mps 739 mmHg 93%
01:00 +9°C° 0.1 mm 1 mps 738 mmHg 94%
02:00 +8°C° 0.1 mm 2 mps 738 mmHg 94%
03:00 +8°C° 0 mm 1 mps 738 mmHg 94%
04:00 +8°C° 0 mm 1 mps 738 mmHg 94%
05:00 +8°C° 0 mm 1 mps 738 mmHg 94%
06:00 +8°C° 0.4 mm 1 mps 738 mmHg 94%
07:00 +8°C° 0.4 mm 1 mps 738 mmHg 93%
08:00 +8°C° 0.4 mm 2 mps 738 mmHg 92%
09:00 +8°C° 1 mm 2 mps 738 mmHg 93%
10:00 +8°C° 1 mm 2 mps 738 mmHg 93%
11:00 +8°C° 1 mm 3 mps 738 mmHg 94%
12:00 +8°C° 1.8 mm 3 mps 738 mmHg 94%
13:00 +8°C° 1.8 mm 2 mps 738 mmHg 94%
14:00 +9°C° 1.8 mm 2 mps 738 mmHg 94%
15:00 +9°C° 0.2 mm 2 mps 738 mmHg 92%
16:00 +9°C° 0.2 mm 2 mps 738 mmHg 90%
17:00 +9°C° 0.2 mm 2 mps 738 mmHg 88%
18:00 +8°C° 0.1 mm 2 mps 738 mmHg 90%
19:00 +7°C° 0.1 mm 2 mps 738 mmHg 92%
20:00 +6°C° 0.1 mm 2 mps 739 mmHg 94%
21:00 +6°C° 0 mm 2 mps 739 mmHg 94%
22:00 +6°C° 0 mm 2 mps 739 mmHg 94%
23:00 +7°C° 0 mm 1 mps 740 mmHg 94%

17 April, Saturday

Time Temperature Precipitation Wind Pressure Humidity
00:00 +7°C° 0 mm 1 mps 740 mmHg 94%
01:00 +7°C° 0 mm 1 mps 740 mmHg 94%
02:00 +7°C° 0 mm 2 mps 740 mmHg 94%
03:00 +6°C° 0 mm 2 mps 741 mmHg 94%
04:00 +6°C° 0 mm 2 mps 741 mmHg 95%
05:00 +6°C° 0 mm 2 mps 742 mmHg 95%
06:00 +6°C° 0 mm 2 mps 742 mmHg 91%
07:00 +7°C° 0 mm 3 mps 743 mmHg 87%
08:00 +7°C° 0 mm 3 mps 743 mmHg 83%
09:00 +7°C° 0 mm 4 mps 744 mmHg 79%
10:00 +8°C° 0 mm 4 mps 744 mmHg 74%
11:00 +9°C° 0 mm 5 mps 744 mmHg 70%
12:00 +10°C° 0 mm 4 mps 744 mmHg 67%
13:00 +11°C° 0 mm 4 mps 745 mmHg 64%
14:00 +11°C° 0 mm 4 mps 745 mmHg 62%
15:00 +11°C° 0 mm 4 mps 745 mmHg 63%
16:00 +11°C° 0 mm 4 mps 746 mmHg 64%
17:00 +11°C° 0 mm 4 mps 746 mmHg 66%
18:00 +9°C° 0 mm 3 mps 746 mmHg 70%
19:00 +8°C° 0 mm 3 mps 746 mmHg 74%
20:00 +7°C° 0 mm 2 mps 747 mmHg 79%
21:00 +7°C° 0 mm 2 mps 747 mmHg 78%
22:00 +7°C° 0 mm 2 mps 747 mmHg 78%
23:00 +8°C° 0 mm 1 mps 748 mmHg 77%
Show more